Location: Newark
(30.1000°N, 109.4667°E)
Time: 14:24:56
(UTC+00:00)

Courier 1B Rocket - Pass Details

Date: 20 February 2020
Orbit: 920 x 1202 km, 28.2° (Epoch: 06 April)

Event Time Altitude Azimuth Distance (km) Brightness Sun altitude
Exits shadow 19:21:03 11° 93° (E) 2,810 7.8 -51.2°
Drops below altitude 10° 19:21:09 10° 93° (E) 2,845 7.8 -51.2°
Sets 19:24:04 0° 92° (E) 3,872 8.7 -50.6°
